Location: Huesca
(42.1318°N, 0.4078°W)
Time: 09:21:33
(UTC+02:00)

TIGRISAT - Pass Details

Date: 02 May 2024
Orbit: 594 x 672 km, 97.7° (Epoch: 21 May)

Event Time Altitude Azimuth Distance (km) Brightness Sun altitude
Rises 05:09:53 0° 139° (SE) 2,888 ? -17.5°
Reaches altitude 10° 05:12:19 10° 127° (SE) 1,973 ? -17.2°
Maximum altitude 05:15:57 28° 69° (ENE) 1,163 ? -16.6°
Drops below altitude 10° 05:19:33 10° 11° (N) 1,954 ? -16.1°
Sets 05:21:56 0° 360° (N) 2,854 ? -15.8°
